Regional Weather Roundup
Issued by NWS Charleston, WV

Home | Current Version | Previous Version | Graphics & Text | Print | Product List | Glossary On
Versions: 1 2 3 4 5 6 7 8 9 10 11 12 13 14 15 16 17 18 19 20 21 22 23 24 25 26 27 28 29 30 31 32 33 34 35 36 37 38 39 40 41 42 43 44 45 46 47 48 49 50
000
ASUS41 KRLX 021810
RWRRLX
West Virginia Regional Weather Roundup
National Weather Service Charleston WV
200 PM EDT SUN AUG 02 2015

Note: "fair" indicates few or no clouds below 12,000 feet with no
significant weather and/or obstructions to visibility.

WVZ003-021900-
Northern Panhandle of West Virginia

CITY           SKY/WX    TMP DP  RH WIND       PRES   REMARKS
WHEELING       MOSUNNY   83  62  49 SW13G18   29.96S
$$

WVZ009-021900-
Northwest West Virginia

CITY           SKY/WX    TMP DP  RH WIND       PRES   REMARKS
PARKERSBURG    MOSUNNY   85  60  42 VRB5      30.01S
$$

WVZ006-021900-
Western West Virginia

CITY           SKY/WX    TMP DP  RH WIND       PRES   REMARKS
HUNTINGTON     SUNNY     84  58  40 VRB5      29.99F
$$

WVZ015-021900-
West Central West Virginia

CITY           SKY/WX    TMP DP  RH WIND       PRES   REMARKS
CHARLESTON     MOSUNNY   83  53  35 VRB5      30.01F
$$

WVZ022-031-021900-
North Central West Virginia

CITY           SKY/WX    TMP DP  RH WIND       PRES   REMARKS
CLARKSBURG     MOSUNNY   81  59  47 W8        30.00F
MORGANTOWN     SUNNY     84  57  39 SW6       30.01F
$$

WVZ025-035-042-045-021900-
Southern West Virginia

CITY           SKY/WX    TMP DP  RH WIND       PRES   REMARKS
BECKLEY        MOSUNNY   75  56  51 E6        30.09F
LOGAN            N/A     79  61  53 VRB5      30.01F
BLUEFIELD      MOSUNNY   77  51  40 VRB3      30.12F
LEWISBURG      PTSUNNY   76  56  51 S6        30.09S
$$

WVZ047-021900-
Northern Mountains of West Virginia

CITY           SKY/WX    TMP DP  RH WIND       PRES   REMARKS
ELKINS         PTSUNNY   80  54  40 VRB6      30.05F
$$

WVZ052-021900-
Eastern Panhandle of West Virginia

CITY           SKY/WX    TMP DP  RH WIND       PRES   REMARKS
MARTINSBURG    MOSUNNY   84  55  36 SW7       29.96F
PETERSBURG     PTSUNNY  N/A N/A N/A NW3       29.99F
$$


USA.gov is the U.S. government's official web portal to all federal, state and local government web resources and services.